Date,TemperatureHighF,TemperatureAvgF,TemperatureLowF,DewpointHighF,DewpointAvgF,DewpointLowF,HumidityHigh,HumidityAvg,HumidityLow,PressureMaxIn,PressureMinIn,WindSpeedMaxMPH,WindSpeedAvgMPH,GustSpeedMaxMPH,PrecipitationSumIn
2013-3-1,46,37,32,38,29,21,98,75,50,0.00,0.00,8,1,0,0.00
2013-3-2,42,35,29,23,21,18,70,56,43,0.00,0.00,9,2,0,0.00
2013-3-3,40,31,27,23,18,12,70,57,41,0.00,0.00,10,2,0,0.00
2013-3-4,45,33,28,21,15,12,56,47,38,0.00,0.00,13,4,0,0.00
2013-3-5,48,36,26,24,19,14,68,51,38,0.00,0.00,10,2,0,0.00
2013-3-6,45,38,34,31,24,20,70,56,43,0.00,0.00,22,4,0,0.00
2013-3-7,40,35,32,31,26,20,94,70,51,0.00,0.00,17,3,0,0.00
2013-3-8,40,34,30,30,28,21,97,80,53,0.00,0.00,15,2,0,0.00
2013-3-9,52,38,29,23,19,14,63,47,29,0.00,0.00,15,3,0,0.00
2013-3-10,56,39,24,29,24,17,81,57,36,0.00,40.00,7,2,0,0.00
2013-3-11,56,44,34,44,34,26,83,68,45,0.00,0.00,10,2,0,0.00
2013-3-12,55,50,39,54,48,37,98,93,78,0.00,0.00,11,3,0,0.00
2013-3-13,52,40,31,37,28,19,98,68,34,0.00,0.00,13,2,0,0.00
2013-3-14,38,32,26,24,11,5,65,41,35,0.00,0.00,15,5,0,0.00
2013-3-15,43,34,25,26,14,5,64,45,35,0.00,0.00,13,4,0,0.00
2013-3-16,41,34,27,24,17,11,77,52,37,0.00,0.00,10,2,0,0.00
2013-3-17,42,31,22,24,13,4,78,48,29,0.00,0.00,10,2,0,0.00
2013-3-18,40,29,19,23,9,2,76,45,31,0.00,0.00,7,2,0,0.00
2013-3-19,41,34,29,36,29,22,92,83,74,0.00,0.00,10,1,0,0.00
2013-3-20,44,33,26,28,16,13,85,51,34,0.00,0.00,15,4,0,0.00
2013-3-21,42,32,24,19,14,8,76,50,32,0.00,0.00,9,2,0,0.00
2013-3-22,40,32,23,19,14,6,56,47,39,0.00,0.00,13,3,0,0.00
2013-3-23,47,37,31,20,17,11,57,44,31,0.00,0.00,14,4,0,0.00
2013-3-24,48,36,25,23,17,10,62,46,35,0.00,0.00,12,2,0,0.00
2013-3-25,50,39,31,24,20,17,60,46,33,0.00,0.00,20,3,0,0.00
2013-3-26,51,40,30,28,22,16,67,50,37,0.00,0.00,11,1,0,0.00
2013-3-27,56,39,23,28,20,16,80,50,29,0.00,0.00,10,2,0,0.00
2013-3-28,50,42,34,31,24,17,61,49,41,0.00,0.00,10,2,0,0.00
2013-3-29,57,43,28,30,24,21,79,50,32,0.00,0.00,12,2,0,0.00
2013-3-30,62,44,29,30,22,13,78,45,24,0.00,0.00,10,2,0,0.00
2013-3-31,60,43,27,38,24,14,81,50,27,0.00,0.00,11,2,0,0.00